Crestview, FL

10:39 PM CDT on April 20, 2018 (GMT -0500)
Sikes

Weather History for KCEW - August, 2013

Change the Weather History Date:

Friday, August 16, 2013

  Actual Average Record
Temperature  
Mean Temperature 78 °F -  
Max Temperature 82 °F 92 °F 100 °F (1990)
Min Temperature 73 °F 70 °F 61 °F (2011)
Cooling Degree Days 12    
Growing Degree Days 28 (Base 50)    
Moisture  
Dew Point 73 °F    
Average Humidity 90    
Maximum Humidity 100    
Minimum Humidity 74    
Precipitation  
Precipitation 0.01 in - - ()
Sea Level Pressure  
Sea Level Pressure 29.99 in    
Wind  
Wind Speed 2 mph (NE)    
Max Wind Speed 7 mph    
Max Gust Speed -    
Visibility 6 miles    
Events Fog , Rain    
Averages and records for this station are not official NWS values.
T = Trace of Precipitation, MM = Missing Value Source: NWS Daily Summary

Daily Weather History Graph

Daily Weather History Graph

Search for Another Location

Airport or City:

Astronomy

Aug. 16, 2013 Rise Set
Actual Time 6:13 AM CDT 7:26 PM CDT
Civil Twilight 5:47 AM CDT 7:52 PM CDT
Nautical Twilight 5:17 AM CDT 8:22 PM CDT
Astronomical Twilight 4:46 AM CDT 8:53 PM CDT
Moon 3:37 PM CDT (8/16) 1:22 AM CDT (8/16)
Length of Visible Light 14h 04m
Length of Day
13h 13m
Waxing Gibbous, 75% of the Moon is Illuminated
Aug 16
Waxing Gibbous
Aug 20
Full
Aug 28
Last Quarter
Sep 5
New
Sep 12
First Quarter

Hourly Weather History & Observations

Time (CDT) Temp. Heat Index Dew Point Humidity Pressure Visibility Wind Dir Wind Speed Gust Speed Precip Events Conditions
12:53 AM 75.9 °F - 73.9 °F 94% 29.96 in 4.0 mi NNE 3.5 mph - N/A   Overcast
1:53 AM 75.9 °F - 73.9 °F 94% 29.96 in 5.0 mi Calm Calm - 0.00 in Rain Light Rain
2:04 AM 75.2 °F - 73.4 °F 94% 29.96 in 6.0 mi Calm Calm - 0.00 in Rain Light Rain
2:31 AM 75.2 °F - 73.4 °F 94% 29.95 in 6.0 mi NE 3.5 mph - 0.00 in   Overcast
2:42 AM 75.2 °F - 73.4 °F 94% 29.95 in 7.0 mi Calm Calm - 0.00 in   Overcast
2:53 AM 75.9 °F - 73.0 °F 91% 29.94 in 7.0 mi Calm Calm - 0.00 in   Overcast
3:12 AM 75.2 °F - 73.4 °F 94% 29.96 in 8.0 mi North 3.5 mph - N/A   Overcast
3:47 AM 73.4 °F - 71.6 °F 94% 29.96 in 1.8 mi NNE 5.8 mph - N/A   Overcast
3:53 AM 73.9 °F - 72.0 °F 93% 29.95 in 1.2 mi North 4.6 mph - N/A   Overcast
4:03 AM 73.4 °F - 71.6 °F 94% 29.96 in 1.2 mi NNE 4.6 mph - N/A   Overcast
4:53 AM 73.9 °F - 72.0 °F 93% 29.95 in 2.5 mi Variable 3.5 mph - N/A   Overcast
5:03 AM 73.4 °F - 71.6 °F 94% 29.96 in 3.0 mi NE 4.6 mph - N/A   Overcast
5:23 AM 73.4 °F - 71.6 °F 94% 29.97 in 1.8 mi ENE 4.6 mph - N/A   Overcast
5:53 AM 73.9 °F - 72.0 °F 93% 29.97 in 1.0 mi Calm Calm - N/A   Overcast
5:58 AM 73.4 °F - 71.6 °F 94% 29.98 in 0.5 mi East 3.5 mph - N/A Fog Fog
6:05 AM 73.4 °F - 71.6 °F 94% 29.97 in 0.5 mi Calm Calm - N/A Fog Fog
6:53 AM 73.9 °F - 73.0 °F 97% 29.98 in 0.5 mi Calm Calm - N/A Fog Fog
7:24 AM 73.4 °F - 73.4 °F 100% 29.99 in 0.8 mi Variable 3.5 mph - N/A   Overcast
7:31 AM 73.4 °F - 73.4 °F 100% 30.00 in 1.0 mi Calm Calm - 0.00 in Rain Light Rain
7:44 AM 73.4 °F - 73.4 °F 100% 30.00 in 3.0 mi Calm Calm - 0.00 in Rain Light Rain
7:53 AM 73.9 °F - 73.0 °F 97% 30.00 in 3.0 mi Calm Calm - 0.00 in Rain Light Rain
8:02 AM 75.2 °F - 73.4 °F 94% 30.00 in 2.5 mi Calm Calm - 0.01 in Rain Light Rain
8:11 AM 75.2 °F - 73.4 °F 94% 30.00 in 3.0 mi North 4.6 mph - 0.01 in Rain Light Rain
8:53 AM 75.0 °F - 73.0 °F 94% 29.99 in 7.0 mi NE 3.5 mph - 0.01 in   Overcast
9:53 AM 77.0 °F - 73.9 °F 90% 30.02 in 7.0 mi Calm Calm - N/A   Overcast
10:53 AM 75.9 °F - 73.0 °F 91% 30.02 in 9.0 mi Calm Calm - N/A   Overcast
11:53 AM 78.1 °F - 73.9 °F 87% 30.00 in 10.0 mi North 3.5 mph - N/A   Overcast
12:33 PM 78.8 °F - 73.4 °F 83% 30.00 in 10.0 mi Calm Calm - 0.00 in Rain Light Rain
12:44 PM 78.8 °F - 73.4 °F 83% 29.99 in 10.0 mi Calm Calm - 0.00 in   Overcast
12:53 PM 79.0 °F - 73.0 °F 82% 29.99 in 10.0 mi Calm Calm - 0.00 in Rain Light Rain
1:53 PM 80.1 °F 84.5 °F 73.9 °F 81% 29.98 in 10.0 mi North 3.5 mph - 0.00 in   Mostly Cloudy
2:53 PM 82.0 °F 87.4 °F 73.0 °F 74% 29.96 in 10.0 mi North 6.9 mph - N/A   Overcast
3:53 PM 80.1 °F 84.2 °F 73.0 °F 79% 29.96 in 10.0 mi North 5.8 mph - N/A   Scattered Clouds
4:26 PM 80.6 °F 85.4 °F 73.4 °F 79% 29.98 in 10.0 mi Variable 4.6 mph - N/A   Mostly Cloudy
4:37 PM 80.6 °F 85.4 °F 73.4 °F 79% 29.97 in 10.0 mi NNE 4.6 mph - N/A   Mostly Cloudy
4:53 PM 81.0 °F 85.8 °F 73.0 °F 77% 29.97 in 10.0 mi North 3.5 mph - N/A   Clear
5:53 PM 80.1 °F 84.2 °F 73.0 °F 79% 29.98 in 10.0 mi Calm Calm - N/A   Scattered Clouds
6:53 PM 79.0 °F - 73.0 °F 82% 29.99 in 10.0 mi Calm Calm - 0.00 in   Mostly Cloudy
7:53 PM 78.1 °F - 73.0 °F 84% 30.00 in 10.0 mi Calm Calm - N/A   Clear
8:53 PM 77.0 °F - 73.0 °F 88% 30.02 in 8.0 mi Calm Calm - N/A   Overcast
9:20 PM 75.2 °F - 73.4 °F 94% 30.03 in 7.0 mi Calm Calm - N/A   Overcast
9:53 PM 75.9 °F - 73.0 °F 91% 30.03 in 9.0 mi ESE 3.5 mph - N/A   Mostly Cloudy
10:04 PM 75.2 °F - 73.4 °F 94% 30.04 in 10.0 mi East 3.5 mph - N/A   Overcast
10:14 PM 75.2 °F - 73.4 °F 94% 30.04 in 10.0 mi East 3.5 mph - N/A   Overcast
10:53 PM 75.9 °F - 73.0 °F 91% 30.02 in 9.0 mi East 6.9 mph - N/A   Mostly Cloudy
11:03 PM 75.2 °F - 73.4 °F 94% 30.03 in 10.0 mi East 4.6 mph - N/A   Mostly Cloudy
11:20 PM 75.2 °F - 71.6 °F 89% 30.03 in 10.0 mi East 4.6 mph - N/A   Overcast
11:33 PM 75.2 °F - 71.6 °F 89% 30.03 in 10.0 mi ENE 3.5 mph - N/A   Mostly Cloudy
11:53 PM 75.0 °F - 72.0 °F 90% 30.03 in 10.0 mi East 4.6 mph - N/A   Overcast